#timestamp,LO_Frequency,Hit,StdDev 
1456797615.5,286046994.6,N
1456797635.3,286046995.8,N
1456797655.2,286046993.8,N
1456797675.9,286046994.5,N
1456797695.7,286046993.9,N
1456797715.6,286046992.1,N
1456797735.4,286046988.9,Y
1456797755.2,286046997.8,P
1456797775.1,286046997.1,P
1456797776.0,286046997.1,P
1456797795.8,286046998.8,N
1456797815.6,286046999.9,N
1456797835.5,286047002.0,N
1456797855.3,286047004.1,N
1456797875.1,286047001.5,N
1456797895.9,286047004.3,N
1456797915.7,286047002.6,N
1456797935.5,286047001.8,N
1456797955.3,286047003.3,N
1456797975.2,286047005.6,N
1456797995.9,286047002.0,N
1456798015.7,286047001.0,N
1456798035.6,286047001.9,N
1456798055.4,286047003.5,N
1456798075.2,286047007.1,N
1456798095.1,286047007.9,N
1456798096.0,286047007.9,N
1456798115.8,286047009.5,N
1456798135.6,286047013.7,Y
1456798155.5,286047008.2,P
1456798175.3,286047009.7,P
1456798195.1,286047009.6,P
1456798215.9,286047007.8,N
1456798235.7,286047004.5,N
1456798255.5,286047004.7,N
1456798275.3,286047007.1,N
1456798295.2,286047006.4,N
1456798315.0,286047007.1,Y
1456798315.9,286047007.1,P
1456798335.8,286047000.0,N
1456798355.6,286047001.5,N
1456798375.4,286047003.9,N
1456798395.2,286046999.4,N
1456798415.1,286046995.4,N
1456798416.0,286046995.4,N
1456798435.8,286046995.8,N
1456798455.6,286046993.5,N
1456798475.5,286046994.7,N
1456798495.3,286046993.8,N
1456798515.1,286046995.6,N
1456798535.9,286046992.4,N
1456798555.7,286046993.9,N
1456798575.5,286046991.7,N
1456798595.4,286046993.5,N
1456798615.2,286046997.5,N
1456798635.0,286046998.0,N
1456798635.9,286046998.0,N
1456798655.8,286046997.3,N
1456798675.6,286046996.2,N
1456798695.4,286046996.6,N
1456798715.2,286046997.0,N
1456798735.1,286046996.9,N
1456798736.0,286046996.9,N
1456798755.8,286046996.7,N
1456798775.6,286046998.8,N
1456798795.5,286046999.1,N
1456798815.3,286046997.3,N
1456798835.1,286046997.0,N
1456798855.9,286046995.0,N
1456798875.7,286046999.1,N
1456798895.5,286046997.2,N
1456798915.4,286046997.9,N
1456798935.2,286046996.2,N
1456798955.0,286046997.2,N
1456798955.9,286046997.2,N
1456798975.8,286046997.3,N
1456798995.6,286046991.9,Y
1456799015.4,286046995.7,P
1456799035.3,286046998.0,P
1456799055.1,286046997.4,N
1456799056.0,286046997.4,N
1456799075.8,286046995.0,Y
1456799095.7,286046998.9,P
1456799115.5,286046999.2,N
1456799135.3,286046994.7,P
1456799155.2,286046994.5,Y
1456799175.9,286046995.8,P
1456799195.7,286046996.3,P
1456799215.6,286046997.1,P
1456799235.4,286046996.8,Y
1456799255.2,286047000.4,P
1456799275.1,286046998.6,N
1456799276.0,286046998.6,N
1456799295.8,286046998.4,N
1456799315.6,286046998.8,N
1456799335.5,286046995.2,Y
1456799355.3,286046994.9,P
1456799375.1,286046994.9,N
1456799395.9,286046997.6,N
1456799415.7,286046995.0,Y
1456799435.5,286046999.7,P
1456799455.4,286047002.2,N
1456799475.2,286046996.6,N
1456799495.0,286046994.3,N
1456799495.9,286046994.3,N
1456799515.8,286046993.8,N
1456799535.6,286046993.9,N
1456799555.4,286046994.6,N
1456799575.3,286046995.5,N
1456799595.1,286046993.3,N
1456799596.0,286046993.3,N
1456799615.8,286046997.4,N
1456799635.6,286046997.6,N
1456799655.5,286046995.2,N
1456799675.3,286046993.3,N
1456799695.1,286046993.3,N
1456799715.9,286046995.4,N
1456799735.7,286046995.2,N
1456799755.5,286046996.4,N
1456799775.4,286046992.3,Y
1456799795.2,286046993.3,P
1456799815.0,286046995.7,P
1456799815.9,286046995.7,P
1456799835.8,286046993.6,Y
1456799855.6,286047004.0,P
1456799875.4,286047004.1,N
1456799895.3,286047004.3,N
1456799915.1,286047000.8,N
1456799935.8,286047000.1,N
1456799955.7,286047002.8,N
1456799975.5,286047000.1,N
1456799995.3,286047002.6,N
1456800015.2,286047000.9,N
1456800035.9,286047000.5,N
1456800055.7,286047000.1,N
1456800075.6,286047000.8,N
1456800095.4,286047002.7,N
1456800115.2,286047003.6,N
1456800135.0,286047005.4,N
1456800135.9,286047005.4,N
1456800155.8,286047004.8,N
1456800175.6,286047004.0,N
1456800195.4,286047000.3,N
1456800215.3,286047000.5,N
1456800235.1,286047001.6,N
1456800255.8,286046998.5,N
1456800275.7,286047002.6,N
1456800295.5,286047001.8,N
1456800315.3,286047003.2,N
1456800335.2,286047000.2,N
1456800355.9,286047002.6,N
1456800375.7,286047002.6,N
1456800395.6,286046999.9,N
1456800415.4,286047000.2,N
1456800435.2,286047000.5,N
1456800455.0,286047000.8,N
1456800455.9,286047000.8,N
1456800475.8,286046999.3,N
1456800495.6,286046999.0,N
1456800515.4,286046998.9,N
1456800535.3,286047001.0,N
1456800555.1,286046996.9,N
1456800575.8,286046996.5,N
1456800595.7,286046996.9,N
1456800615.5,286046997.4,N
1456800635.3,286046995.3,N
1456800655.2,286046997.5,N
1456800675.9,286046996.8,N
1456800695.7,286046998.5,N
1456800715.6,286046997.2,N
1456800735.4,286046996.4,N
1456800755.2,286046995.6,N
1456800775.0,286046995.6,N
1456800775.9,286046995.6,N
1456800795.8,286046994.8,N
1456800815.6,286046992.6,Y
1456800835.5,286046994.0,P
1456800855.3,286046993.5,N
1456800875.1,286046993.6,N
1456800895.8,286046994.4,N
1456800915.7,286046993.0,Y
1456800935.5,286046998.8,P
1456800955.3,286047001.6,N
1456800975.2,286047003.1,N
1456800995.0,286047005.9,N
1456800995.9,286047005.9,N
1456801015.7,286047003.5,N
1456801035.6,286047001.5,N
1456801055.4,286047000.0,N
1456801075.2,286047001.6,N
1456801095.1,286047000.5,N
1456801096.0,286047000.5,N
1456801115.8,286046998.4,N
1456801135.6,286046999.0,N
1456801155.5,286046995.2,N
1456801175.3,286046996.5,N
1456801195.1,286046997.7,N
